443  
ASUS42 KILM 202113  
RWRILM  
RWRILM  
REGIONAL HOURLY WEATHER ROUNDUP  
NATIONAL WEATHER SERVICE WILMINGTON NC  
500 PM EDT SAT OCT 20 2018  
 
NOTE: "FAIR" INDICATES FEW OR NO CLOUDS BELOW 12,000 FEET WITH NO  
SIGNIFICANT WEATHER AND/OR S TO VISIBILITY
.  
   
..............WFO WILMINGTON COUNTY WARNING AREA............
 
 
   
.....COASTAL NC AND SC COUNTIES...
 
 
 
CITY SKY/WX TMP DP RH WIND PRES REMARKS
 
WILMINGTON FAIR 77 66 68 SW15 29.79F  
N MYRTLE BEACH FAIR 76 69 79 SW9 29.80F  
MYRTLE BEACH PTSUNNY 75 70 84 SW10 29.83F  
   
.....INLAND NC AND SC COUNTIES....
 
 
 
CITY SKY/WX TMP DP RH WIND PRES REMARKS
 
LUMBERTON CLOUDY 72 65 78 W8 29.79F  
ELIZABETHTOWN PTSUNNY 73 68 83 W6 29.79F  
WHITEVILLE PTSUNNY 75 67 77 SW8 29.78F  
FLORENCE PTSUNNY 73 68 84 SW8 29.80F  
DARLINGTON FAIR 71 66 84 W7 29.81F  
KINGSTREE CLOUDY 73 68 83 SW5 29.83F  
HARTSVILLE FAIR 70 63 78 W5 29.81F  
BENNETTSVILLE FAIR 70 64 83 W7 29.81F  
CONWAY FAIR 73 68 83 SW6 29.81F  
GEORGETOWN FAIR 70 70 100 SW6 29.85F  
MARION CLOUDY 72 66 83 SW9G17 29.81F  
   
...................REST OF NORTH CAROLINA...................
 
 
   
........EASTERN NC......
 
 
 
CITY SKY/WX TMP DP RH WIND PRES REMARKS
 
CAPE HATTERAS PTSUNNY 72 68 87 W5 29.77F  
JACKSONVILLE LGT RAIN 71 70 96 CALM 29.78F  
MOREHEAD CITY PTSUNNY 75 69 81 W14 29.78F  
KENANSVILLE LGT RAIN 70 66 88 W3 29.78F  
NEW BERN FAIR 73 68 84 SW6 29.78F  
ELIZABETH CITY CLOUDY 67 63 87 SW9 29.76S  
   
........CENTRAL NC......
 
 
 
CITY SKY/WX TMP DP RH WIND PRES REMARKS
 
RALEIGH DURHAM PTSUNNY 67 62 84 W12 29.79F  
ROCKY MOUNT FAIR 67 62 84 SW6 29.78F  
ROANOKE RAPIDS NOT AVBL  
FAYETTEVILLE FAIR 71 64 78 W6 29.79F  
HOFFMAN PTSUNNY 70 64 83 W8 29.80S  
   
........WESTERN NC......
 
 
 
CITY SKY/WX TMP DP RH WIND PRES REMARKS
 
CHARLOTTE PTSUNNY 71 63 75 W6 29.83F  
GREENSBORO PTSUNNY 67 57 70 W10 29.78F  
HICKORY NOT AVBL  
BOONE NOT AVBL  
ASHEVILLE NOT AVBL  
   
....................REST OF SOUTH CAROLINA..................
 
 
   
........EASTERN SC......
 
 
 
CITY SKY/WX TMP DP RH WIND PRES REMARKS
 
CHARLESTON CLOUDY 71 70 96 W6 29.87F  
BEAUFORT MCAS FAIR 78 70 76 NW13 29.88R  
HILTON HEAD PTSUNNY 84 70 61 W6 29.88F  
   
........CENTRAL SC......
 
 
 
CITY SKY/WX TMP DP RH WIND PRES REMARKS
 
COLUMBIA CLOUDY 74 66 76 W10 29.83F  
ORANGEBURG CLOUDY 72 65 78 W9 29.85F  
SUMTER SHAW FAIR 72 64 77 W13 29.82F  
   
........WESTERN SC......
 
 
 
CITY SKY/WX TMP DP RH WIND PRES REMARKS
 
GREENVILLE NOT AVBL  
ROCK HILL FAIR 70 63 78 W8 29.82F  
ANDERSON FAIR 73 55 53 W13 29.87S  
CLEMSON NOT AVBL  
GREENWOOD FAIR 71 59 65 W10G20 29.88S  
 
   
..................COASTAL AND OFFSHORE REPORTS...............
 
 
   
...............LOCAL PIERS AND NC RESERVE.............
 
 
 
STATION/POSITION TIME SKY/WX TEMP WIND PRES VSBY
 
AIR SEA DIR/SP/G  
(UTC) (F) (DEG/KT/KT) (MB) (MI)  
JOHNY MRCER PIER 2048 78 78 230/ 14/ 19 1009.1F  
NC RESRV MASNBRO NOT AVBL  
OCEAN CREST PIER NOT AVBL  
SPRINGMAID PIER NOT AVBL  
 
   
...............COASTAL AND OFFSHORE BUOYS.............
 
 
 
STATION/POSITION TIME SKY/WX TEMP WIND PRES VSBY
 
AIR SEA DIR/SP/G  
(UTC) (F) (DEG/KT/KT) (MB) (MI)  
DIMNDSHOAL 41025 2050 76 79 270/ 21/ 25 1008.7  
WVE H/P(F/S)= 6/ 5 SWL H/P/D(F/S/D)= 2/140/ 8  
 
CAPE LOOKOUT 2100 270/ 16/ 18 1008.8F  
ONSLOW BAY 41036 NOT AVBL  
ONSLOW BAY 41064 2008 78 270/ 21/ 29 1009.7F  
ONSLOW BAY 41159 2100 79 N/A  
WVE H/P(F/S)= 7/ 6  
 
MASNBO INL 41110 2100 77 N/A  
WVE H/P(F/S)= 4/ 6  
 
WILM HARBR 41108 2100 78 N/A  
WVE H/P(F/S)= 5/ 6  
 
27SE WRITB 41037 2008 78 79 250/ 19/ 25 1009.7F  
FRYING PAN 41013 2050 79 79 240/ 17/ 23 1010.2F  
WVE H/P(F/S)= 6/ 6 SWL H/P/D(F/S/D)= 2/150/ 9  
 
SUNST NRSH 41024 2008 78 76 270/ 17/ 23 1013.8F  
CAPRS NRSH 41029 2008 77 78 230/ 17 1011.8R  
EDISTO 41004 2050 79 80 1011.0F  
WVE H/P(F/S)= 5/ 5 SWL H/P/D(F/S/D)= 2/220/14  
 
   
.........OFFSHORE BUOYS BEYOND 100 NM OFFSHORE........
 
   
....IN A TRIANGLE---HAT TO BERMUDA TO BAHAMAS TO HAT..
 
 
 
 
STATION/POSITION TIME SKY/WX TEMP WIND PRES VSBY
 
AIR SEA DIR/SP/G  
(UTC) (F) (DEG/KT/KT) (MB) (MI)  
150E HAT 41001 NOT AVBL  
W BERMUDA 41048 NOT AVBL  
ATLANTIC S 41049 2050 81 70/ 14/ 17 1016.0R  
WVE H/P(F/S)= 9/ 8 SWL H/P/D(F/S/D)= 7/ 50/ 8  
 
E BAHAMAS 41046 2050 50/ 8/ 12 1014.1F  
WVE H/P(F/S)= 7/ 9 SWL H/P/D(F/S/D)= 7/ 10/ 9  
 
NE BAHAMAS 41047 2050 100/ 8/ 12 1015.8F  
WVE H/P(F/S)= 5/ 7 SWL H/P/D(F/S/D)= 5/ 90/ 7  
 
120E CANVRL41010 2050 82 84 260/ 8/ 12 1015.0F  
 
END  
 
 
CLICK HERE TO GO TO PREVIOUS BULLETINS.

The Nexlab NC Page
The Nexlab SC Page Main Text Page